Location: Vienna
(48.2082°N, 16.3738°E)
Time: 09:34:19
(UTC+02:00)

ISS - Pass Details

Date: 20 July 2018
Orbit: 402 x 408 km, 51.6° (Epoch: 23 July)

Event Time Altitude Azimuth Distance (km) Brightness Sun altitude
Rises 03:51:08 0° 291° (WNW) 2,333 -0.2 -11.3°
Reaches altitude 10° 03:53:16 10° 286° (WNW) 1,471 -1.2 -11.1°
Maximum altitude 03:56:28 49° 211° (SSW) 533 -3.6 -10.7°
Drops below altitude 10° 03:59:39 10° 135° (SE) 1,466 -1.0 -10.4°
Sets 04:01:46 0° 130° (SE) 2,324 0.1 -10.1°
